Powrót do katalogu

TITAN 3C TRANSTAGE DEB

AktywnyMEO
NORAD 33512·DEBRIS·🇺🇸 United States

Wystrzelony Sep 26, 1968 z Cape Canaveral Space Force Station

Loading…

Następne Przeloty (najbliższe 24 godziny)

TLE

ŚwieżeSource: Space-Track

Epoka: Sep 13, 2026, 14:09 UTC

1 33512U 68081N   26256.58992257  .00000049  00000-0  00000-0 0  9998
2 33512   2.2070  46.9171 0115973 300.0871  59.2719  1.00903734 74528

Śledź TITAN 3C TRANSTAGE DEB w czasie rzeczywistym z AllMySat

Download on the App Store